星链-31888 (STARLINK-31888 )

导读 | 星芒AI

STARLINK-31888 是 SpaceX 星链计划中的一颗低轨通信卫星,属于该计划的多个批次之一。该卫星旨在为全球用户提供高速互联网服务,尤其关注网络覆盖不足的地区。它运行在约 550 公里的轨道高度,配备先进通信设备,支持星间链路,提高数据传输效率。作为星链系统的一部分,STARLINK-31888 有助于构建全球卫星互联网网络,提升远程通信能力,并支持多种应用场景,包括农村宽带、航空和海上互联网接入等。

基本信息
目录编号:
59788
目录名称:
STARLINK-31888
国际标识:
2024-093G
轨道中心:
EARTH
卫星名称:
星链-31888
卫星全名:
星链-31888 (STARLINK-31888 )
卫星状态:
在轨 (已飞行534 天)
发射日期:
2024-05-18 UTC
国别 :
美国 (US)
星等 :
--
轨道信息
数据来源 国际轨道数据
星历时间: 2025-11-02T18:00:40+0800
18小时前
查看轨道信息
半长轴: 6861.229km
偏心率: 0.0001126
轨道倾角: 43.001°
近地点辐角 277.062°
升交点赤经 207.412°
平近点角 83.010°
近地点: 482.321km
远地点: 483.867km
周期: 94.268分钟
每日圈数: 15.275657
详细信息
固有亮度:
5
最大亮度:
1.5
卫星平台:
Starlink v2.0 mini
覆盖范围:
全球
运营商:
太空探索技术公司
运营商所在国:
美国
制造商(研发单位):
太空探索技术公司
制造商所在国:
美国
使用方式:
暂无
卫星简介
星链(Starlink)计划是由太空探索技术公司(SpaceX)提出的一个巨型低轨卫星互联网星座项目,计划在2019年至2024年间在太空搭建由约1.2万颗卫星组成的“星链”网络,其中1584颗将部署在地球上空550千米处的近地轨道,并从2020年开始工作。该卫星仍在工作。
2D轨道图
3D轨道图
轨道高度分析图
轨道倾角分析图
轨道综合分析图
查看轨道综合分析图